Probability
0 0 0 0 0 0 0 0 0 0 0 0 3 6 13 16 35 48 45 42 48 52 48 55 55 48 45 32 26 19 19 13 6 3 13 13 10 10 10 6 3 6 13 6
0 0 0 0 0 0 0 0 0 0 0 0 3 10 6 13 29 42 48 45 58 55 61 58 61 55 48 39 26 16 13 6 6 3 3 6 10 13 13 6 6 6 10 10
0 0 0 0 0 0 0 0 0 0 0 0 3 3 10 10 19 26 42 42 52 61 65 68 65 65 42 39 26 26 13 6 6 10 3 6 6 6 6 10 6 6 13 10
0 0 0 0 0 0 0 0 0 0 0 0 0 0 0 10 10 16 29 32 48 58 68 68 68 61 58 39 32 26 16 13 10 10 3 3 6 10 6 6 6 3 6 10
0 0 0 0 0 0 0 0 0 0 0 0 0 0 0 0 13 23 32 39 48 58 68 55 52 52 52 42 35 35 26 23 16 13 10 3 3 3 3 6 3 0 0 3
0 0 0 0 0 0 0 0 0 0 0 0 0 0 0 0 6 10 26 45 55 52 58 48 39 42 39 35 39 29 29 23 19 19 13 10 3 3 3 3 3 3 3 3
0 0 0 0 0 0 0 0 0 0 0 0 0 0 0 3 0 6 23 35 55 48 48 45 39 35 35 32 39 29 26 19 16 19 16 13 13 3 3 3 3 3 3 3
0 0 0 0 0 0 0 0 0 0 0 0 0 0 0 0 6 10 23 45 48 48 42 35 29 29 32 29 19 23 19 13 13 13 13 13 10 10 6 6 6 6 3 3
0 0 0 0 0 0 0 0 0 0 0 0 0 0 0 0 23 23 35 45 48 48 42 35 32 23 23 19 23 23 23 16 13 13 13 13 6 6 10 6 6 6 3 3
0 0 0 0 0 0 0 0 0 0 0 0 0 0 0 0 13 26 32 45 45 45 35 35 26 19 16 19 26 26 23 19 19 10 10 10 10 10 6 0 0 0 0 0
0 0 0 0 0 0 0 0 0 0 0 0 0 0 0 0 0 19 32 35 32 32 39 29 26 19 19 19 19 19 13 16 16 13 10 10 6 6 6 6 0 0 0 0
0 0 0 0 0 0 0 0 0 0 0 0 0 0 0 0 0 13 23 35 32 29 26 29 29 26 23 19 16 13 16 13 16 10 10 6 6 10 10 6 6 3 3 0
0 0 0 0 0 0 0 0 0 0 0 0 0 0 0 3 3 10 19 29 29 35 32 32 26 26 23 16 16 13 13 10 10 6 10 13 10 10 10 10 6 6 6 3
0 0 0 0 0 0 0 0 0 0 0 0 0 0 0 6 6 13 16 23 32 39 35 26 26 26 19 19 16 16 13 10 10 13 16 16 13 10 10 13 13 10 10 6
0 0 0 0 0 0 0 0 0 0 0 0 0 0 0 3 6 13 19 19 26 35 39 23 29 16 13 13 13 16 10 19 13 16 19 23 19 19 19 13 13 13 10 10
0 0 0 0 0 0 0 0 0 0 0 0 0 0 0 0 6 6 23 29 26 35 35 29 19 16 16 13 13 10 10 13 13 13 19 19 19 16 13 13 13 10 10 6
0 0 0 0 0 0 0 0 0 0 0 0 0 0 0 3 6 10 16 26 35 29 26 19 19 16 13 10 10 10 10 13 10 6 6 3 10 10 13 13 13 13 6 3
0 0 0 0 0 0 0 0 3 3 6 3 0 0 3 0 3 6 16 23 26 16 19 16 16 13 10 6 3 3 3 6 6 6 6 3 6 6 6 6 6 6 6 6
0 0 0 0 0 0 3 3 3 0 0 3 3 3 10 16 19 23 23 29 26 6 0 6 13 10 6 3 3 3 3 6 6 6 6 6 10 10 10 6 0 0 0 0
0 0 0 0 0 0 0 0 0 3 0 0 6 16 13 13 13 16 13 13 13 0 0 3 6 6 3 3 3 6 6 6 6 6 3 3 6 6 3 3 3 0 0 3
0 0 0 0 0 0 0 0 0 0 0 0 10 10 10 3 0 0 6 6 6 0 3 6 6 6 3 0 3 3 0 0 0 0 0 0 0 3 3 3 3 0 0 0
0 0 0 0 0 0 0 3 0 0 0 3 3 6 3 3 0 3 6 6 0 3 3 3 3 0 0 0 0 0 0 0 0 0 0 0 0 0 0 0 0 0 0 0
0 0 0 0 0 0 0 0 0 0 3 3 3 0 3 0 3 0 3 0 0 3 6 3 0 0 0 0 0 0 0 0 0 0 0 0 0 0 0 0 0 0 0 0
0 0 0 0 0 0 0 0 0 0 3 0 0 0 3 3 0 0 0 0 0 0 3 3 0 0 0 0 0 0 0 0 0 0 0 0 0 0 0 0 0 0 0 0
0 0 0 0 0 0 0 0 0 3 3 0 0 0 0 0 3 0 0 3 6 6 6 3 3 3 0 0 0 0 0 0 0 0 0 0 0 0 0 0 0 3 0 0
0 0 0 0 0 0 0 0 0 3 3 0 0 0 0 0 3 3 0 0 6 6 3 3 3 3 0 0 0 0 0 0 0 0 0 0 0 0 0 0 0 0 0 0
Height
5909 5911 5910 5911 5911 5912 5913 5913 5913 5912 5912 5912 5911 5911 5910 5909 5908 5907 5905 5903 5901 5899 5896 5894 5891 5889 5888 5886 5884 5882 5880 5879 5879 5879 5879 5880 5881 5882 5884 5886 5889 5891 5894 5896
5907 5908 5908 5909 5910 5910 5911 5912 5911 5911 5910 5910 5910 5910 5909 5908 5907 5906 5904 5902 5901 5898 5896 5893 5891 5888 5887 5885 5883 5881 5879 5878 5878 5878 5877 5879 5880 5881 5883 5884 5887 5889 5892 5894
5903 5905 5906 5907 5908 5909 5909 5909 5909 5909 5908 5908 5908 5909 5907 5906 5905 5904 5903 5901 5900 5897 5895 5892 5890 5888 5886 5884 5882 5881 5879 5878 5877 5877 5877 5878 5878 5879 5881 5883 5885 5887 5889 5892
5899 5901 5903 5904 5905 5906 5906 5906 5907 5906 5906 5906 5907 5907 5906 5905 5904 5903 5902 5900 5898 5896 5894 5891 5889 5887 5885 5883 5881 5880 5878 5878 5876 5876 5875 5876 5877 5877 5879 5881 5882 5885 5887 5890
5896 5897 5899 5901 5902 5903 5903 5903 5904 5904 5904 5904 5904 5904 5905 5903 5902 5901 5900 5899 5897 5895 5892 5889 5887 5886 5884 5882 5880 5878 5877 5877 5876 5875 5874 5874 5875 5876 5877 5879 5881 5883 5885 5888
5892 5893 5896 5898 5898 5899 5900 5901 5901 5901 5902 5902 5902 5902 5902 5901 5901 5900 5899 5897 5895 5893 5891 5888 5886 5884 5882 5880 5879 5877 5876 5875 5875 5874 5873 5873 5873 5874 5875 5877 5879 5881 5883 5886
5888 5890 5892 5893 5895 5896 5897 5898 5898 5898 5899 5900 5899 5899 5900 5899 5898 5898 5897 5895 5893 5892 5889 5887 5885 5883 5881 5879 5877 5876 5875 5874 5873 5873 5872 5872 5872 5873 5874 5875 5877 5879 5881 5883
5883 5886 5888 5889 5891 5892 5893 5894 5895 5896 5896 5897 5896 5896 5898 5897 5896 5895 5895 5893 5892 5890 5888 5886 5883 5881 5880 5878 5876 5875 5874 5873 5872 5871 5871 5871 5871 5871 5872 5873 5875 5877 5879 5880
5877 5881 5882 5884 5886 5887 5889 5890 5891 5892 5892 5893 5893 5894 5895 5894 5894 5893 5893 5892 5890 5889 5887 5885 5882 5880 5878 5876 5875 5873 5872 5871 5870 5870 5869 5869 5869 5870 5870 5871 5873 5875 5877 5878
5871 5875 5877 5879 5881 5883 5885 5886 5887 5888 5888 5889 5890 5891 5892 5892 5891 5891 5890 5889 5888 5887 5885 5883 5881 5879 5877 5875 5873 5872 5871 5870 5869 5868 5868 5868 5868 5869 5869 5870 5871 5873 5874 5875
5865 5869 5872 5874 5876 5878 5880 5882 5883 5884 5885 5886 5887 5890 5889 5889 5889 5888 5888 5887 5886 5885 5884 5882 5880 5878 5876 5874 5873 5871 5870 5869 5868 5867 5867 5866 5866 5867 5868 5869 5869 5871 5872 5873
5858 5862 5865 5868 5871 5872 5875 5877 5879 5881 5882 5882 5883 5888 5885 5885 5885 5885 5885 5884 5884 5883 5882 5881 5879 5877 5875 5873 5871 5870 5868 5867 5866 5866 5865 5865 5865 5865 5866 5867 5868 5868 5869 5870
5852 5855 5860 5863 5867 5868 5870 5872 5874 5876 5877 5878 5879 5884 5882 5882 5882 5882 5882 5882 5881 5881 5880 5878 5877 5875 5873 5872 5870 5868 5867 5866 5865 5865 5864 5864 5864 5864 5864 5864 5865 5866 5866 5866
5845 5849 5854 5859 5862 5863 5865 5867 5869 5871 5872 5874 5876 5878 5878 5878 5879 5879 5879 5879 5879 5878 5877 5876 5875 5873 5871 5869 5868 5867 5866 5864 5864 5863 5863 5863 5862 5862 5861 5861 5862 5862 5862 5862
5839 5843 5847 5852 5855 5857 5859 5862 5864 5866 5868 5870 5872 5873 5874 5875 5875 5876 5876 5876 5876 5875 5874 5873 5872 5870 5869 5867 5866 5865 5864 5863 5862 5861 5861 5860 5860 5859 5859 5859 5858 5858 5858 5858
5832 5836 5841 5845 5848 5851 5853 5856 5858 5860 5862 5864 5866 5868 5870 5870 5871 5872 5872 5872 5872 5872 5871 5870 5869 5867 5866 5864 5863 5862 5861 5861 5860 5859 5858 5857 5857 5856 5856 5855 5855 5855 5854 5854
5825 5829 5834 5838 5842 5844 5846 5850 5853 5855 5857 5859 5861 5864 5865 5866 5867 5867 5868 5868 5868 5868 5867 5866 5865 5864 5862 5861 5860 5859 5858 5857 5857 5856 5855 5854 5853 5853 5852 5852 5851 5851 5850 5850
5817 5821 5826 5830 5834 5836 5843 5845 5847 5849 5851 5854 5856 5858 5859 5861 5862 5862 5863 5864 5864 5864 5863 5862 5861 5860 5858 5857 5856 5856 5855 5854 5853 5852 5851 5851 5850 5849 5848 5848 5847 5847 5846 5846
5808 5813 5817 5822 5825 5829 5834 5837 5841 5843 5846 5848 5850 5851 5853 5854 5855 5857 5858 5858 5859 5859 5858 5858 5857 5856 5854 5853 5852 5852 5850 5849 5848 5847 5846 5845 5845 5844 5844 5843 5842 5842 5841 5841
5800 5805 5809 5813 5817 5821 5827 5831 5833 5837 5838 5842 5843 5844 5846 5847 5849 5852 5852 5852 5852 5853 5852 5852 5851 5851 5850 5849 5848 5847 5845 5844 5843 5842 5841 5839 5839 5839 5839 5838 5837 5836 5836 5835
5792 5796 5800 5804 5808 5812 5818 5822 5826 5829 5832 5834 5835 5836 5838 5840 5842 5844 5844 5845 5845 5846 5846 5846 5845 5845 5844 5844 5843 5842 5840 5839 5838 5837 5836 5835 5834 5834 5833 5832 5831 5831 5830 5829
5781 5787 5791 5795 5799 5805 5809 5813 5817 5820 5823 5824 5826 5828 5830 5831 5833 5835 5836 5837 5837 5838 5839 5839 5838 5838 5838 5837 5836 5836 5834 5834 5833 5832 5831 5829 5828 5828 5827 5826 5826 5825 5823 5822
5770 5776 5781 5786 5792 5796 5800 5803 5807 5810 5813 5815 5817 5819 5821 5822 5824 5826 5827 5828 5829 5830 5830 5831 5831 5831 5831 5830 5830 5829 5828 5827 5826 5825 5824 5822 5822 5821 5821 5820 5819 5818 5817 5816
5760 5765 5771 5776 5781 5785 5789 5793 5797 5800 5803 5806 5808 5810 5812 5814 5815 5817 5819 5820 5821 5821 5822 5822 5822 5822 5822 5822 5821 5821 5820 5819 5818 5817 5816 5815 5815 5814 5814 5813 5812 5811 5809 5808
5750 5755 5760 5765 5770 5775 5779 5783 5787 5790 5793 5796 5798 5800 5802 5804 5806 5808 5809 5811 5812 5813 5813 5813 5813 5814 5814 5813 5813 5812 5811 5811 5810 5809 5808 5808 5807 5806 5806 5805 5804 5803 5802 5801
5740 5746 5751 5755 5761 5765 5770 5773 5777 5780 5784 5786 5789 5791 5793 5794 5796 5798 5799 5801 5802 5803 5804 5804 5805 5805 5805 5805 5804 5803 5803 5802 5802 5801 5800 5799 5798 5797 5797 5796 5795 5794 5793 5792
Wind_Speed
13 12 12 12 12 12 11 11 11 12 12 11 11 11 11 11 10 10 11 12 14 15 15 14 12 10 10 10 9 9 8 6 4 4 5 6 9 10 11 12 14 14 13 13
16 15 14 14 13 13 13 13 13 14 15 14 13 12 12 12 11 11 11 12 13 14 15 14 13 11 10 10 9 10 8 7 4 3 5 6 8 10 11 11 13 14 14 14
18 18 16 15 15 14 14 14 15 16 16 16 14 13 13 13 12 12 12 13 13 14 14 14 13 11 10 10 9 9 8 7 5 4 4 5 7 10 12 12 14 14 14 14
20 19 17 16 16 16 16 16 16 16 16 16 15 14 13 14 12 12 11 12 12 13 14 14 13 11 10 9 9 9 8 7 6 5 4 5 7 9 11 13 14 14 15 15
21 21 19 17 17 18 17 18 17 17 17 16 16 15 14 14 12 11 10 11 11 12 14 13 12 11 10 9 8 8 8 7 5 5 5 5 6 9 10 13 14 15 16 16
23 23 21 20 20 19 19 19 18 18 17 16 16 16 14 13 11 10 10 10 11 12 13 14 12 11 10 9 8 8 7 7 6 5 5 5 6 8 9 12 14 14 15 15
24 24 22 22 21 20 20 19 19 19 18 17 17 16 15 13 12 10 10 10 11 12 13 14 13 12 11 9 9 8 7 7 7 5 5 5 6 7 8 10 13 14 14 15
26 25 24 23 22 22 21 20 20 19 18 17 17 17 14 13 11 11 10 10 11 13 14 14 14 12 11 10 10 9 8 8 7 6 5 5 6 7 8 10 12 13 13 14
28 26 26 25 24 23 22 22 21 20 19 18 17 17 14 13 12 12 11 10 11 12 13 13 14 13 11 11 10 10 9 9 7 7 6 6 6 6 7 9 11 12 13 12
30 29 28 27 26 25 24 22 21 20 19 19 17 16 15 13 12 12 11 11 12 12 13 13 13 13 11 11 10 10 8 7 7 7 7 6 6 6 7 8 11 12 12 13
32 31 29 29 27 25 24 23 22 21 20 19 18 15 14 14 13 12 12 12 13 12 13 13 13 12 11 10 9 9 8 7 7 6 6 6 7 7 7 8 10 11 13 13
33 33 31 30 29 28 26 24 23 21 19 19 18 15 14 14 14 13 12 13 13 12 12 13 13 12 11 10 9 8 8 7 6 6 6 6 7 8 8 9 10 11 12 13
34 34 32 31 31 29 28 26 24 23 22 20 19 16 14 14 13 13 13 13 13 12 13 13 13 13 12 11 10 9 9 8 7 6 6 7 8 8 9 10 10 12 12 13
35 34 32 30 28 28 28 27 26 25 24 22 20 18 15 14 14 14 14 14 13 13 14 14 14 14 13 12 11 9 9 9 8 8 7 8 8 9 9 10 11 13 14 15
35 34 32 30 29 29 29 28 27 27 26 24 22 20 18 16 16 16 15 15 15 15 16 16 15 14 14 12 11 11 10 10 10 10 9 10 10 10 10 11 12 13 14 15
37 35 33 31 30 30 31 30 29 29 28 27 24 22 20 19 18 17 17 17 16 17 17 17 17 15 15 14 12 12 12 12 12 11 11 12 12 12 12 13 13 14 15 16
39 37 34 33 31 31 33 31 30 30 29 28 26 23 21 21 20 19 19 18 18 18 18 18 18 17 16 15 15 14 15 14 14 14 13 14 14 14 14 15 16 16 17 18
42 39 38 35 33 35 32 31 31 30 29 29 28 26 25 24 23 22 21 21 21 20 20 20 20 18 17 16 15 15 16 15 15 15 16 16 16 16 16 16 16 17 17 18
45 43 41 39 37 36 34 33 32 31 31 30 30 30 28 27 26 25 24 24 23 22 22 22 21 20 19 18 17 17 17 18 17 17 17 18 18 18 17 17 17 18 19 19
48 46 45 44 42 40 37 35 34 33 33 31 31 32 31 29 28 27 27 26 25 24 24 24 23 22 21 20 20 20 20 20 19 18 18 18 18 19 19 18 19 20 20 20
51 50 49 47 46 45 42 40 38 38 36 33 33 33 32 32 30 28 28 28 27 26 25 25 25 24 23 22 21 22 21 21 20 20 20 19 20 19 19 20 20 21 22 22
53 53 52 51 50 49 45 44 42 41 38 37 36 35 34 33 32 31 30 30 29 28 28 28 27 26 25 25 24 24 23 23 22 22 22 22 21 21 21 21 22 22 23 24
53 53 54 54 52 50 48 47 45 43 42 39 38 37 37 35 33 33 33 32 31 31 30 30 30 29 28 28 27 27 27 26 25 25 24 24 23 23 24 24 24 24 25 25
52 52 52 53 53 51 49 47 46 44 42 40 39 38 37 36 35 35 35 34 33 32 32 33 33 32 31 30 30 29 28 28 28 27 26 25 26 26 26 26 26 26 26 26
49 50 51 51 51 51 49 47 46 44 42 41 39 37 37 36 36 37 37 37 36 36 35 34 33 33 31 31 30 29 29 29 30 29 28 28 28 28 28 28 28 28 28 28
47 47 47 47 47 48 47 46 44 43 41 40 38 38 37 36 36 37 37 38 38 38 37 35 34 33 32 31 31 31 30 30 30 30 30 30 30 30 30 30 30 30 30 30
Wind_Direction
239 243 249 254 261 268 272 276 280 285 294 302 308 315 323 332 339 344 348 350 353 354 355 352 350 344 338 334 332 331 328 326 311 265 235 233 230 227 223 223 220 216 215 217
238 241 247 253 259 266 270 272 276 281 289 296 301 308 313 321 328 331 338 345 347 347 351 353 352 345 339 333 331 331 330 328 310 291 249 245 242 233 226 220 218 217 218 219
240 243 248 254 259 264 269 272 274 278 285 291 298 304 308 318 321 325 331 335 340 340 343 347 350 347 339 333 336 333 329 331 319 295 267 248 240 237 228 223 218 218 217 219
239 245 248 253 258 262 266 269 272 278 283 287 293 297 303 312 314 318 325 329 335 338 339 339 341 340 337 336 338 336 334 327 318 300 268 248 243 233 226 223 221 217 215 219
237 243 247 251 256 259 262 267 272 276 280 284 289 294 303 307 308 308 317 325 332 337 339 340 339 338 338 338 336 332 332 324 313 303 281 252 240 229 225 219 218 219 219 222
238 243 248 250 254 259 262 267 270 274 277 280 285 290 299 307 305 303 310 320 332 333 333 338 339 337 336 339 337 332 324 316 303 291 273 255 246 228 220 216 218 219 219 225
240 244 247 249 252 256 259 264 268 271 274 278 281 285 292 296 297 298 311 319 328 333 332 335 334 334 329 330 331 326 321 316 306 286 268 256 250 234 222 220 218 220 224 228
239 241 244 246 248 251 255 259 264 270 272 272 275 280 289 288 289 295 307 314 322 329 333 336 336 329 327 325 325 322 314 313 305 296 276 255 244 240 231 224 222 222 228 231
239 239 242 244 244 247 250 255 261 266 270 270 273 279 283 282 285 289 297 306 316 327 332 334 336 330 323 320 321 323 312 308 300 288 277 258 251 242 234 228 227 231 234 237
238 238 239 242 243 245 248 252 257 263 267 270 274 279 283 283 284 286 292 303 311 324 333 335 336 335 327 321 320 317 320 318 308 293 277 263 259 249 240 234 230 231 237 243
238 238 238 240 241 244 246 249 255 260 266 271 275 280 284 284 283 285 290 296 304 314 328 336 337 337 333 326 320 320 317 320 313 298 286 267 257 254 253 247 243 243 244 245
238 237 236 238 239 241 244 248 252 258 265 270 275 279 282 284 285 286 289 292 298 310 323 334 337 336 331 327 321 321 322 315 312 301 290 273 263 257 252 251 249 248 248 250
237 238 236 236 239 242 245 248 253 257 261 266 274 280 282 282 285 287 288 292 299 307 316 328 335 338 332 328 323 316 319 314 304 301 293 283 270 262 258 256 256 255 257 258
237 239 238 238 242 244 245 247 250 255 261 268 275 279 281 284 285 284 285 292 300 307 312 319 329 333 331 324 321 317 314 313 301 293 286 284 277 270 269 270 264 262 262 262
237 238 238 235 234 237 240 244 249 254 260 266 272 276 281 283 285 282 281 288 298 305 310 313 319 323 325 322 316 312 310 308 299 290 284 283 280 275 273 272 271 269 270 268
236 238 238 236 234 237 238 241 247 252 257 263 269 275 280 282 280 279 280 284 292 300 306 309 310 314 317 317 312 306 304 301 296 288 285 284 281 276 274 275 274 273 272 271
236 239 239 239 238 238 238 241 246 252 258 263 268 273 276 280 282 279 280 284 290 297 300 302 304 304 308 308 306 304 301 297 293 290 287 286 285 281 276 275 275 274 274 274
237 239 241 242 241 242 242 242 246 251 256 261 266 270 273 276 276 276 277 280 285 290 296 299 301 300 301 302 301 301 301 296 294 290 287 285 283 281 278 276 276 276 277 277
237 239 242 244 246 247 246 245 246 250 254 259 264 267 270 272 273 273 274 278 281 284 288 292 295 297 300 302 299 298 299 297 294 290 288 283 281 279 279 279 278 278 279 278
234 238 241 245 247 250 251 252 252 255 257 259 263 265 266 268 269 271 271 273 276 280 283 287 290 292 295 297 294 296 297 295 293 292 291 285 281 280 280 281 281 280 280 281
232 236 240 244 247 251 252 254 256 258 260 262 263 263 264 265 267 267 267 268 272 276 278 281 284 287 289 290 291 293 293 292 291 291 291 286 283 282 283 284 285 283 283 282
232 234 238 242 246 249 252 255 257 259 261 262 263 263 263 263 265 265 265 266 269 271 274 277 281 282 283 286 287 291 291 290 291 290 289 285 281 280 282 283 283 284 284 283
234 235 238 240 245 249 252 254 256 258 260 261 262 262 263 262 262 263 263 264 266 268 271 274 277 278 279 283 284 287 289 287 288 289 287 283 280 280 281 281 282 283 283 282
235 236 239 241 244 247 250 253 255 258 259 261 261 261 261 260 260 261 262 263 265 267 269 271 275 276 278 280 282 284 286 286 286 285 285 284 283 282 281 282 282 281 281 280
236 238 240 242 244 246 249 252 254 256 258 260 260 259 259 258 259 260 262 262 263 265 266 268 271 273 276 278 280 281 283 284 284 283 283 284 283 282 282 282 282 281 279 278
237 238 239 241 242 245 247 250 252 253 255 256 257 257 258 259 259 260 261 264 265 267 267 267 268 271 274 277 278 280 283 283 282 282 281 282 282 282 282 282 281 281 279 277